Dane County Regional Truax Field Madison US
ICAO: KMSN
IATA: MSN
Category: Large
Scheduled Services: Yes

Elevation: 887 ft
TransAlt. 18000 ft.

Airport Communications:
MADISON APP:120.1
ATIS:124.65
MADISON CLNC DEL:121.62
CTAF:119.3
MADISON DEP:126.85
MADISON GND:121.9
ARNG OPS:40.8
ANG OPS:138.25
GREEN BAY RDO:122.6
MADISON TWR:119.3
UNICOM:122.95

KMSN Zoom In..

Runways:

(A) RW 03 length 7200 ft width 150 ft
---- / hdg 29

(B) RW 14 length 5846 ft width 150 ft
---- / hdg 136

(C) RW 18 length 9006 ft width 150 ft
ILS 110.10 / hdg 182

(D) RW 21 length 7200 ft width 150 ft
ILS 111.55 / hdg 209

(E) RW 32 length 5846 ft width 150 ft
---- / hdg 316

(F) RW 36 length 9006 ft width 150 ft
ILS 109.90 / hdg 2

Location; KMSN
Day. 14 / Time. 13.53 Zulu
* Altimeter: 29.99
* Temperature: 24° c. 75.2°f.
* Wind from: 000° Speed 00 kn.
Dewpoint: 20° c.
Visibility: 7 Statute Miles.
Clouds: Scattered 25000 ft.

KMSN 141353Z 00000KT 7SM SCT250 24/20 A2999 RMK AO2 SLP151 T02390200


Wind - Calm.

 
 
jpsmedia.com for Web Design worldairports.se 2018   terms of use